Voltar ao catálogo

SARI-2

AtivoCiênciaSSO
NORAD 66669·PAYLOAD·🇦🇪 UAE

Lançado Nov 28, 2025 de Vandenberg Space Force Base

Loading…

Próximas Passagens (próximas 24 horas)

TLE

AtualizadoSource: Space-Track

Época: Sep 14, 2026, 11:03 UTC

1 66669U 25276D   26257.46054376  .00023798  00000-0  77557-3 0  9995
2 66669  97.3988 331.3088 0006557  64.4663 295.7256 15.31800439 44139

Acompanhe SARI-2 em tempo real com AllMySat

Download on the App Store